Mineola, TX

9:59 PM CDT on May 28, 2017 (GMT -0500)
Mineola

Weather History for KJDD - November, 2013

Change the Weather History Date:

Tuesday, November 12, 2013

  Actual Average (KTYR) Record (KTYR)
Temperature  
Mean Temperature 46 °F -  
Max Temperature 57 °F 64 °F 86 °F (1902)
Min Temperature 35 °F 46 °F 20 °F (1901)
Degree Days  
Heating Degree Days 19    
Moisture  
Dew Point 38 °F    
Average Humidity 68    
Maximum Humidity 100    
Minimum Humidity 38    
Precipitation  
Precipitation 0.00 in - - ()
Sea Level Pressure  
Sea Level Pressure 30.52 in    
Wind  
Wind Speed 6 mph (North)    
Max Wind Speed 18 mph    
Max Gust Speed 26 mph    
Visibility 9 miles    
Events      
Averages and records for this station are not official NWS values.
T = Trace of Precipitation, MM = Missing Value Source: NWS Daily Summary

Daily Weather History Graph

Daily Weather History Graph

Search for Another Location

Airport or City:

Trip Planner

Search our weather history database for the weather conditions in past years. The results will help you decide how hot, cold, wet, or windy it might be!

Date:

Astronomy

Nov. 12, 2013 Rise Set
Actual Time 6:49 AM CST 5:22 PM CST
Civil Twilight 6:23 AM CST 5:48 PM CST
Nautical Twilight 5:53 AM CST 6:18 PM CST
Astronomical Twilight 5:24 AM CST 6:47 PM CST
Moon 2:23 PM CST (11/12) 1:56 AM CST (11/12)
Length of Visible Light 11h 24m
Length of Day
10h 32m
Waxing Gibbous, 76% of the Moon is Illuminated
Nov 12
Waxing Gibbous
Nov 17
Full
Nov 25
Last Quarter
Dec 2
New
Dec 9
First Quarter

Hourly Weather History & Observations

Time (CST) Temp. Windchill Dew Point Humidity Pressure Visibility Wind Dir Wind Speed Gust Speed Precip Events Conditions
12:15 AM 51.8 °F - 50.0 °F 94% 30.29 in 7.0 mi Calm Calm - N/A   Clear
12:35 AM 51.8 °F - 50.0 °F 94% 30.28 in 7.0 mi Calm Calm - N/A   Clear
12:55 AM 50.0 °F - 48.2 °F 94% 30.28 in 10.0 mi Calm Calm - N/A   Clear
1:15 AM 48.2 °F - 48.2 °F 100% 30.29 in 9.0 mi Calm Calm - N/A   Clear
1:35 AM 48.2 °F - 46.4 °F 93% 30.30 in 10.0 mi Calm Calm - N/A   Clear
1:55 AM 48.2 °F - 48.2 °F 100% 30.30 in 2.5 mi Calm Calm - N/A   Clear
2:15 AM 50.0 °F - 48.2 °F 94% 30.30 in 5.0 mi Calm Calm - N/A   Clear
2:35 AM 50.0 °F - 48.2 °F 94% 30.30 in 1.8 mi Calm Calm - N/A   Scattered Clouds
2:55 AM 48.2 °F - 48.2 °F 100% 30.31 in 8.0 mi Calm Calm - N/A   Mostly Cloudy
3:15 AM 51.8 °F - 50.0 °F 94% 30.32 in 7.0 mi Calm Calm - N/A   Overcast
3:35 AM 51.8 °F - 51.8 °F 100% 30.33 in 5.0 mi Calm Calm - N/A   Overcast
3:55 AM 53.6 °F - 53.6 °F 100% 30.34 in 9.0 mi Calm Calm - N/A   Overcast
4:15 AM 55.4 °F - 55.4 °F 100% 30.35 in 6.0 mi NW 6.9 mph - N/A   Overcast
4:35 AM 57.2 °F - 55.4 °F 94% 30.36 in 10.0 mi NNW 8.1 mph - N/A   Overcast
4:55 AM 57.2 °F - 55.4 °F 94% 30.37 in 9.0 mi North 13.8 mph 17.3 mph N/A   Overcast
5:15 AM 57.2 °F - 53.6 °F 88% 30.39 in 8.0 mi NNW 16.1 mph 24.2 mph N/A   Overcast
5:35 AM 53.6 °F - 51.8 °F 94% 30.40 in 8.0 mi North 18.4 mph 24.2 mph N/A   Overcast
5:55 AM 53.6 °F - 50.0 °F 88% 30.42 in 8.0 mi NNW 13.8 mph 19.6 mph N/A   Overcast
6:15 AM 51.8 °F - 48.2 °F 88% 30.44 in 8.0 mi NNW 18.4 mph 24.2 mph N/A   Overcast
6:35 AM 51.8 °F - 46.4 °F 82% 30.45 in 8.0 mi NNW 15.0 mph 21.9 mph N/A   Overcast
6:55 AM 50.0 °F - 44.6 °F 82% 30.46 in 8.0 mi NNW 15.0 mph 24.2 mph N/A   Overcast
7:15 AM 50.0 °F - 44.6 °F 82% 30.47 in 8.0 mi North 13.8 mph 26.5 mph N/A   Mostly Cloudy
7:35 AM 50.0 °F - 44.6 °F 82% 30.49 in 8.0 mi NNW 15.0 mph 20.7 mph N/A   Mostly Cloudy
7:55 AM 50.0 °F - 44.6 °F 82% 30.50 in 9.0 mi North 15.0 mph 25.3 mph N/A   Overcast
8:15 AM 50.0 °F - 42.8 °F 76% 30.52 in 7.0 mi North 12.7 mph 18.4 mph N/A   Overcast
8:35 AM 48.2 °F - 42.8 °F 82% 30.53 in 8.0 mi North 13.8 mph 20.7 mph N/A   Overcast
8:55 AM 48.2 °F - 42.8 °F 82% 30.54 in 9.0 mi North 9.2 mph 16.1 mph N/A   Overcast
9:15 AM 50.0 °F - 41.0 °F 71% 30.55 in 9.0 mi North 12.7 mph 16.1 mph N/A   Overcast
9:35 AM 48.2 °F - 39.2 °F 71% 30.56 in 10.0 mi NNW 15.0 mph 18.4 mph N/A   Overcast
9:55 AM 48.2 °F - 39.2 °F 71% 30.56 in 10.0 mi North 13.8 mph 18.4 mph N/A   Mostly Cloudy
10:15 AM 50.0 °F - 39.2 °F 66% 30.57 in 9.0 mi North 10.4 mph 16.1 mph N/A   Scattered Clouds
10:35 AM 51.8 °F - 39.2 °F 62% 30.57 in 10.0 mi North 12.7 mph 20.7 mph N/A   Scattered Clouds
10:55 AM 51.8 °F - 39.2 °F 62% 30.57 in 10.0 mi NNW 15.0 mph 18.4 mph N/A   Partly Cloudy
11:15 AM 53.6 °F - 39.2 °F 58% 30.57 in 10.0 mi North 15.0 mph 20.7 mph N/A   Partly Cloudy
11:35 AM 53.6 °F - 39.2 °F 58% 30.57 in 9.0 mi NNE 10.4 mph - N/A   Mostly Cloudy
12:15 PM 53.6 °F - 39.2 °F 58% 30.57 in 10.0 mi North 10.4 mph - N/A   Mostly Cloudy
12:35 PM 53.6 °F - 39.2 °F 58% 30.56 in 10.0 mi NE 5.8 mph 16.1 mph N/A   Mostly Cloudy
12:55 PM 55.4 °F - 39.2 °F 54% 30.56 in 9.0 mi North 9.2 mph 18.4 mph N/A   Mostly Cloudy
1:15 PM 55.4 °F - 39.2 °F 54% 30.55 in 10.0 mi North 10.4 mph - N/A   Mostly Cloudy
1:35 PM 55.4 °F - 39.2 °F 54% 30.54 in 10.0 mi NNE 10.4 mph 17.3 mph N/A   Mostly Cloudy
1:55 PM 55.4 °F - 37.4 °F 51% 30.54 in 10.0 mi NE 8.1 mph 19.6 mph N/A   Partly Cloudy
2:15 PM 55.4 °F - 37.4 °F 51% 30.54 in 10.0 mi North 10.4 mph 16.1 mph N/A   Partly Cloudy
2:35 PM 55.4 °F - 37.4 °F 51% 30.55 in 10.0 mi North 17.3 mph - N/A   Clear
2:55 PM 55.4 °F - 35.6 °F 47% 30.55 in 10.0 mi North 13.8 mph 18.4 mph N/A   Clear
3:15 PM 55.4 °F - 33.8 °F 44% 30.55 in 10.0 mi NNW 15.0 mph 19.6 mph N/A   Clear
3:35 PM 55.4 °F - 32.0 °F 41% 30.55 in 10.0 mi NNW 12.7 mph 17.3 mph N/A   Clear
3:55 PM 55.4 °F - 32.0 °F 41% 30.56 in 10.0 mi North 10.4 mph 16.1 mph N/A   Clear
4:15 PM 53.6 °F - 30.2 °F 41% 30.56 in 10.0 mi North 6.9 mph 16.1 mph N/A   Clear
4:35 PM 53.6 °F - 28.4 °F 38% 30.56 in 10.0 mi North 13.8 mph - N/A   Clear
4:55 PM 53.6 °F - 28.4 °F 38% 30.57 in 10.0 mi NNW 9.2 mph - N/A   Clear
5:15 PM 51.8 °F - 28.4 °F 41% 30.58 in 10.0 mi North 8.1 mph - N/A   Clear
5:35 PM 50.0 °F - 28.4 °F 43% 30.58 in 10.0 mi North 6.9 mph - N/A   Clear
5:55 PM 48.2 °F - 26.6 °F 43% 30.59 in 10.0 mi North 8.1 mph - N/A   Clear
6:15 PM 48.2 °F - 26.6 °F 43% 30.60 in 10.0 mi North 9.2 mph - N/A   Clear
6:35 PM 46.4 °F 42.4 °F 24.8 °F 43% 30.61 in 10.0 mi North 8.1 mph - N/A   Clear
6:55 PM 46.4 °F 41.9 °F 23.0 °F 40% 30.62 in 10.0 mi North 9.2 mph - N/A   Clear
7:15 PM 46.4 °F 42.4 °F 23.0 °F 40% 30.62 in 10.0 mi North 8.1 mph - N/A   Clear
7:35 PM 44.6 °F 42.2 °F 24.8 °F 46% 30.63 in 10.0 mi North 4.6 mph - N/A   Clear
7:55 PM 44.6 °F 41.4 °F 26.6 °F 49% 30.64 in 10.0 mi North 5.8 mph - N/A   Clear
8:15 PM 42.8 °F 40.1 °F 26.6 °F 53% 30.65 in 10.0 mi North 4.6 mph - N/A   Clear
8:35 PM 42.8 °F 40.1 °F 26.6 °F 53% 30.66 in 10.0 mi North 4.6 mph - N/A   Clear
8:55 PM 42.8 °F 40.1 °F 24.8 °F 49% 30.66 in 10.0 mi North 4.6 mph - N/A   Clear
9:15 PM 41.0 °F - 26.6 °F 57% 30.66 in 10.0 mi Calm Calm - N/A   Clear
9:35 PM 39.2 °F 37.0 °F 26.6 °F 61% 30.67 in 10.0 mi North 3.5 mph - N/A   Clear
9:55 PM 39.2 °F - 26.6 °F 61% 30.67 in 10.0 mi Calm Calm - N/A   Clear
10:15 PM 39.2 °F - 26.6 °F 61% 30.67 in 10.0 mi Calm Calm - N/A   Clear
10:35 PM 37.4 °F - 28.4 °F 70% 30.67 in 10.0 mi Calm Calm - N/A   Clear
10:55 PM 35.6 °F - 28.4 °F 75% 30.67 in 10.0 mi Calm Calm - N/A   Clear
11:15 PM 35.6 °F - 28.4 °F 75% 30.68 in 10.0 mi Calm Calm - N/A   Clear
11:35 PM 35.6 °F - 28.4 °F 75% 30.67 in 9.0 mi Calm Calm - N/A   Clear
11:55 PM 35.6 °F 32.8 °F 28.4 °F 75% 30.68 in 10.0 mi NNE 3.5 mph - N/A   Clear